Location: ????????
(60.4333°N, 46.4710°E)
Time: 04:14:41
(UTC+00:00)

Cosmos 1943 Rocket - Pass Details

Date: 25 November 2020
Orbit: 811 x 844 km, 71.0° (Epoch: 19 January)

Event Time Altitude Azimuth Distance (km) Brightness Sun altitude
Rises 14:36:47 0° 319° (NW) 3,352 5.7 -17.5°
Reaches altitude 10° 14:39:12 10° 319° (NW) 2,420 5.0 -17.8°
Maximum altitude 14:44:45 84° 233° (SW) 833 2.2 -18.5°
Drops below altitude 10° 14:50:19 10° 145° (SE) 2,426 4.3 -19.2°
Enters shadow 14:51:11 - 145° (SE) 2,755 4.6 -19.3°
